Time,TemperatureF,DewpointF,PressureIn,WindDirection,WindDirectionDegrees,WindSpeedMPH,WindSpeedGustMPH,Humidity,HourlyPrecipIn,Conditions,Clouds,dailyrainin,SoftwareType,DateUTC
2013-07-19 00:03:00,64.3,53.5,30.28,North,0,0.0,0.0,68,0.00,,,0.00,WUHU216HW,2013-07-19 07:03:00,
2013-07-19 00:08:00,64.4,54.1,30.28,North,0,0.0,0.0,69,0.00,,,0.00,WUHU216HW,2013-07-19 07:08:00,
2013-07-19 00:13:00,64.1,53.7,30.28,North,0,0.0,0.0,69,0.00,,,0.00,WUHU216HW,2013-07-19 07:13:00,
2013-07-19 00:18:00,64.1,53.7,30.28,North,0,0.0,0.0,69,0.00,,,0.00,WUHU216HW,2013-07-19 07:18:00,
2013-07-19 00:23:00,63.7,53.8,30.28,North,0,0.0,0.0,70,0.00,,,0.00,WUHU216HW,2013-07-19 07:23:00,
2013-07-19 00:28:00,63.5,54.0,30.28,North,0,0.0,0.0,71,0.00,,,0.00,WUHU216HW,2013-07-19 07:28:00,
2013-07-19 00:33:00,63.5,54.0,30.27,North,0,0.0,0.0,71,0.00,,,0.00,WUHU216HW,2013-07-19 07:33:00,
2013-07-19 00:38:00,63.4,54.2,30.27,North,0,0.0,0.0,72,0.00,,,0.00,WUHU216HW,2013-07-19 07:38:00,
2013-07-19 00:43:00,63.2,54.0,30.27,North,0,0.0,0.0,72,0.00,,,0.00,WUHU216HW,2013-07-19 07:43:00,
2013-07-19 00:48:00,63.0,54.2,30.26,North,0,0.0,0.0,73,0.00,,,0.00,WUHU216HW,2013-07-19 07:48:00,
2013-07-19 00:53:00,62.8,54.0,30.27,North,0,0.0,0.0,73,0.00,,,0.00,WUHU216HW,2013-07-19 07:53:00,
2013-07-19 00:58:00,62.6,53.5,30.26,North,0,0.0,0.0,72,0.00,,,0.00,WUHU216HW,2013-07-19 07:58:00,
2013-07-19 01:03:00,62.6,53.8,30.26,North,0,0.0,0.0,73,0.00,,,0.00,WUHU216HW,2013-07-19 08:03:00,
2013-07-19 01:08:00,62.6,53.8,30.26,North,0,0.0,0.0,73,0.00,,,0.00,WUHU216HW,2013-07-19 08:08:00,
2013-07-19 01:13:00,62.6,54.2,30.25,North,0,0.0,0.0,74,0.00,,,0.00,WUHU216HW,2013-07-19 08:13:00,
2013-07-19 01:18:00,62.6,54.2,30.25,North,0,0.0,0.0,74,0.00,,,0.00,WUHU216HW,2013-07-19 08:18:00,
2013-07-19 01:23:00,62.6,54.2,30.25,North,0,0.0,0.0,74,0.00,,,0.00,WUHU216HW,2013-07-19 08:23:00,
2013-07-19 01:28:00,62.5,54.0,30.24,North,0,0.0,0.0,74,0.00,,,0.00,WUHU216HW,2013-07-19 08:28:00,
2013-07-19 01:33:00,62.3,53.8,30.25,North,0,0.0,0.0,74,0.00,,,0.00,WUHU216HW,2013-07-19 08:33:00,
2013-07-19 01:38:00,62.1,53.7,30.25,North,0,0.0,0.0,74,0.00,,,0.00,WUHU216HW,2013-07-19 08:38:00,
2013-07-19 01:43:00,61.9,53.6,30.25,North,0,0.0,0.0,74,0.00,,,0.00,WUHU216HW,2013-07-19 08:43:00,
2013-07-19 01:48:00,61.9,53.9,30.25,North,0,0.0,0.0,75,0.00,,,0.00,WUHU216HW,2013-07-19 08:48:00,
2013-07-19 01:53:00,61.9,53.9,30.24,North,0,0.0,0.0,75,0.00,,,0.00,WUHU216HW,2013-07-19 08:53:00,
2013-07-19 01:58:00,61.6,53.9,30.24,North,0,0.0,0.0,76,0.00,,,0.00,WUHU216HW,2013-07-19 08:58:00,
2013-07-19 02:03:00,61.6,53.9,30.24,North,0,0.0,0.0,76,0.00,,,0.00,WUHU216HW,2013-07-19 09:03:00,
2013-07-19 02:08:00,61.4,53.7,30.24,North,0,0.0,0.0,76,0.00,,,0.00,WUHU216HW,2013-07-19 09:08:00,
2013-07-19 02:13:00,61.2,53.7,30.24,North,0,0.0,0.0,76,0.00,,,0.00,WUHU216HW,2013-07-19 09:13:00,
2013-07-19 02:18:00,61.2,53.7,30.25,North,0,0.0,0.0,76,0.00,,,0.00,WUHU216HW,2013-07-19 09:18:00,
2013-07-19 02:23:00,61.0,53.5,30.24,North,0,0.0,0.0,76,0.00,,,0.00,WUHU216HW,2013-07-19 09:23:00,
2013-07-19 02:28:00,60.8,53.3,30.24,North,0,0.0,0.0,76,0.00,,,0.00,WUHU216HW,2013-07-19 09:28:00,
2013-07-19 02:33:00,61.0,53.5,30.24,North,0,0.0,0.0,76,0.00,,,0.00,WUHU216HW,2013-07-19 09:33:00,
2013-07-19 02:38:00,61.2,53.7,30.24,North,0,0.0,0.0,76,0.00,,,0.00,WUHU216HW,2013-07-19 09:38:00,
2013-07-19 02:43:00,61.2,53.3,30.24,North,0,0.0,0.0,75,0.00,,,0.00,WUHU216HW,2013-07-19 09:43:00,
2013-07-19 02:48:00,61.2,53.3,30.24,North,0,0.0,0.0,75,0.00,,,0.00,WUHU216HW,2013-07-19 09:48:00,
2013-07-19 02:53:00,61.2,53.3,30.24,North,0,0.0,0.0,75,0.00,,,0.00,WUHU216HW,2013-07-19 09:53:00,
2013-07-19 02:58:00,61.2,53.3,30.24,North,0,0.0,0.0,75,0.00,,,0.00,WUHU216HW,2013-07-19 09:58:00,
2013-07-19 03:03:00,61.2,53.3,30.24,North,0,0.0,0.0,75,0.00,,,0.00,WUHU216HW,2013-07-19 10:03:00,
2013-07-19 03:08:00,61.2,53.7,30.24,North,0,0.0,0.0,76,0.00,,,0.00,WUHU216HW,2013-07-19 10:08:00,
2013-07-19 03:13:00,61.2,53.7,30.24,North,0,0.0,0.0,76,0.00,,,0.00,WUHU216HW,2013-07-19 10:13:00,
2013-07-19 03:18:00,61.0,53.5,30.24,North,0,0.0,0.0,76,0.00,,,0.00,WUHU216HW,2013-07-19 10:18:00,
2013-07-19 03:23:00,60.8,53.3,30.24,North,0,0.0,0.0,76,0.00,,,0.00,WUHU216HW,2013-07-19 10:23:00,
2013-07-19 03:28:00,60.8,53.3,30.24,North,0,0.0,0.0,76,0.00,,,0.00,WUHU216HW,2013-07-19 10:28:00,
2013-07-19 03:33:00,60.7,53.1,30.24,North,0,0.0,0.0,76,0.00,,,0.00,WUHU216HW,2013-07-19 10:33:00,
2013-07-19 03:38:00,60.5,52.9,30.24,North,0,0.0,0.0,76,0.00,,,0.00,WUHU216HW,2013-07-19 10:38:00,
2013-07-19 03:43:00,60.5,53.3,30.24,North,0,0.0,0.0,77,0.00,,,0.00,WUHU216HW,2013-07-19 10:43:00,
2013-07-19 03:48:00,60.3,53.1,30.24,North,0,0.0,0.0,77,0.00,,,0.00,WUHU216HW,2013-07-19 10:48:00,
2013-07-19 03:53:00,60.3,53.1,30.25,North,0,0.0,0.0,77,0.00,,,0.00,WUHU216HW,2013-07-19 10:53:00,
2013-07-19 03:58:00,59.9,52.7,30.25,North,0,0.0,0.0,77,0.00,,,0.00,WUHU216HW,2013-07-19 10:58:00,
2013-07-19 04:03:00,59.8,52.6,30.24,North,0,0.0,0.0,77,0.00,,,0.00,WUHU216HW,2013-07-19 11:03:00,
2013-07-19 04:08:00,59.6,52.4,30.25,North,0,0.0,0.0,77,0.00,,,0.00,WUHU216HW,2013-07-19 11:08:00,
2013-07-19 04:13:00,59.6,52.4,30.25,North,0,0.0,0.0,77,0.00,,,0.00,WUHU216HW,2013-07-19 11:13:00,
2013-07-19 04:18:00,59.6,52.4,30.25,North,0,0.0,0.0,77,0.00,,,0.00,WUHU216HW,2013-07-19 11:18:00,
2013-07-19 04:23:00,59.6,52.7,30.25,North,0,0.0,0.0,78,0.00,,,0.00,WUHU216HW,2013-07-19 11:23:00,
2013-07-19 04:28:00,59.6,52.4,30.25,North,0,0.0,0.0,77,0.00,,,0.00,WUHU216HW,2013-07-19 11:28:00,
2013-07-19 04:33:00,59.6,52.7,30.25,North,0,0.0,0.0,78,0.00,,,0.00,WUHU216HW,2013-07-19 11:33:00,
2013-07-19 04:38:00,59.4,52.2,30.25,North,0,0.0,0.0,77,0.00,,,0.00,WUHU216HW,2013-07-19 11:38:00,
2013-07-19 04:43:00,59.4,51.8,30.25,North,0,0.0,0.0,76,0.00,,,0.00,WUHU216HW,2013-07-19 11:43:00,
2013-07-19 04:48:00,59.4,51.8,30.25,North,0,0.0,0.0,76,0.00,,,0.00,WUHU216HW,2013-07-19 11:48:00,
2013-07-19 04:53:00,59.4,51.8,30.25,North,0,0.0,0.0,76,0.00,,,0.00,WUHU216HW,2013-07-19 11:53:00,
2013-07-19 04:58:00,59.6,52.0,30.25,North,0,0.0,0.0,76,0.00,,,0.00,WUHU216HW,2013-07-19 11:58:00,
2013-07-19 05:03:00,59.8,52.2,30.25,North,0,0.0,0.0,76,0.00,,,0.00,WUHU216HW,2013-07-19 12:03:00,
2013-07-19 05:08:00,59.8,52.2,30.25,North,0,0.0,0.0,76,0.00,,,0.00,WUHU216HW,2013-07-19 12:08:00,
2013-07-19 05:13:00,59.8,51.8,30.25,North,0,0.0,0.0,75,0.00,,,0.00,WUHU216HW,2013-07-19 12:13:00,
2013-07-19 05:18:00,59.8,51.8,30.25,North,0,0.0,0.0,75,0.00,,,0.00,WUHU216HW,2013-07-19 12:18:00,
2013-07-19 05:23:00,59.8,51.8,30.25,North,0,0.0,0.0,75,0.00,,,0.00,WUHU216HW,2013-07-19 12:23:00,
2013-07-19 05:28:00,59.8,51.8,30.26,North,0,0.0,0.0,75,0.00,,,0.00,WUHU216HW,2013-07-19 12:28:00,
2013-07-19 05:33:00,59.9,52.0,30.26,North,0,0.0,0.0,75,0.00,,,0.00,WUHU216HW,2013-07-19 12:33:00,
2013-07-19 05:38:00,59.8,52.2,30.26,North,0,0.0,0.0,76,0.00,,,0.00,WUHU216HW,2013-07-19 12:38:00,
2013-07-19 05:43:00,59.8,52.2,30.26,North,0,0.0,0.0,76,0.00,,,0.00,WUHU216HW,2013-07-19 12:43:00,
2013-07-19 05:48:00,59.8,52.2,30.26,North,0,0.0,0.0,76,0.00,,,0.00,WUHU216HW,2013-07-19 12:48:00,
2013-07-19 05:53:00,59.6,52.4,30.26,North,0,0.0,0.0,77,0.00,,,0.00,WUHU216HW,2013-07-19 12:53:00,
2013-07-19 05:58:00,59.8,52.6,30.26,North,0,0.0,0.0,77,0.00,,,0.00,WUHU216HW,2013-07-19 12:58:00,
2013-07-19 06:03:00,59.8,52.9,30.26,North,0,0.0,0.0,78,0.00,,,0.00,WUHU216HW,2013-07-19 13:03:00,
2013-07-19 06:08:00,59.8,52.9,30.27,North,0,0.0,0.0,78,0.00,,,0.00,WUHU216HW,2013-07-19 13:08:00,
2013-07-19 06:13:00,59.9,53.5,30.27,North,0,0.0,0.0,79,0.00,,,0.00,WUHU216HW,2013-07-19 13:13:00,
2013-07-19 06:18:00,60.1,53.3,30.27,North,0,0.0,0.0,78,0.00,,,0.00,WUHU216HW,2013-07-19 13:18:00,
2013-07-19 06:23:00,60.5,54.0,30.27,North,0,0.0,0.0,79,0.00,,,0.00,WUHU216HW,2013-07-19 13:23:00,
2013-07-19 06:26:00,60.5,54.0,30.27,North,0,0.0,0.0,79,0.00,,,0.00,WUHU216HW,2013-07-19 13:26:00,
2013-07-19 06:31:00,60.5,53.6,30.27,North,0,0.0,0.0,78,0.00,,,0.00,WUHU216HW,2013-07-19 13:31:00,
2013-07-19 06:36:00,60.7,53.8,30.27,North,0,0.0,0.0,78,0.00,,,0.00,WUHU216HW,2013-07-19 13:36:00,
2013-07-19 06:41:00,60.8,54.4,30.27,North,0,0.0,0.0,79,0.00,,,0.00,WUHU216HW,2013-07-19 13:41:00,
2013-07-19 06:46:00,61.2,54.7,30.27,North,0,0.0,0.0,79,0.00,,,0.00,WUHU216HW,2013-07-19 13:46:00,
2013-07-19 06:51:00,61.6,54.6,30.27,North,0,0.0,0.0,78,0.00,,,0.00,WUHU216HW,2013-07-19 13:51:00,
2013-07-19 06:56:00,61.9,54.6,30.27,North,0,0.0,0.0,77,0.00,,,0.00,WUHU216HW,2013-07-19 13:56:00,
2013-07-19 07:01:00,62.8,55.1,30.27,North,0,0.0,0.0,76,0.00,,,0.00,WUHU216HW,2013-07-19 14:01:00,
2013-07-19 07:06:00,63.5,55.4,30.27,North,0,0.0,0.0,75,0.00,,,0.00,WUHU216HW,2013-07-19 14:06:00,
2013-07-19 07:11:00,64.1,55.6,30.27,North,0,0.0,0.0,74,0.00,,,0.00,WUHU216HW,2013-07-19 14:11:00,
2013-07-19 07:16:00,64.6,55.8,30.27,North,0,0.0,0.0,73,0.00,,,0.00,WUHU216HW,2013-07-19 14:16:00,
2013-07-19 07:21:00,65.0,55.8,30.27,North,0,0.0,0.0,72,0.00,,,0.00,WUHU216HW,2013-07-19 14:21:00,
2013-07-19 07:26:00,65.7,56.1,30.27,North,0,0.0,0.0,71,0.00,,,0.00,WUHU216HW,2013-07-19 14:26:00,
2013-07-19 07:31:00,66.6,56.5,30.27,North,0,0.0,0.0,70,0.00,,,0.00,WUHU216HW,2013-07-19 14:31:00,
2013-07-19 07:36:00,67.3,57.2,30.27,North,0,0.0,0.0,70,0.00,,,0.00,WUHU216HW,2013-07-19 14:36:00,
2013-07-19 07:41:00,67.9,57.3,30.27,North,0,0.0,0.0,69,0.00,,,0.00,WUHU216HW,2013-07-19 14:41:00,
2013-07-19 07:46:00,68.2,57.2,30.27,North,0,0.0,0.0,68,0.00,,,0.00,WUHU216HW,2013-07-19 14:46:00,
2013-07-19 07:51:00,68.6,57.2,30.27,North,0,0.0,0.0,67,0.00,,,0.00,WUHU216HW,2013-07-19 14:51:00,
2013-07-19 07:56:00,68.9,57.5,30.27,North,0,0.0,0.0,67,0.00,,,0.00,WUHU216HW,2013-07-19 14:56:00,
2013-07-19 08:01:00,69.5,57.6,30.27,North,0,0.0,0.0,66,0.00,,,0.00,WUHU216HW,2013-07-19 15:01:00,
2013-07-19 08:06:00,69.7,57.3,30.27,North,0,0.0,0.0,65,0.00,,,0.00,WUHU216HW,2013-07-19 15:06:00,
2013-07-19 08:11:00,69.8,57.5,30.28,North,0,0.0,0.0,65,0.00,,,0.00,WUHU216HW,2013-07-19 15:11:00,
2013-07-19 08:16:00,70.2,57.1,30.28,North,0,0.0,0.0,63,0.00,,,0.00,WUHU216HW,2013-07-19 15:16:00,
2013-07-19 08:21:00,70.4,56.8,30.28,North,0,0.0,0.0,62,0.00,,,0.00,WUHU216HW,2013-07-19 15:21:00,
2013-07-19 08:26:00,70.7,56.7,30.28,North,0,0.0,0.0,61,0.00,,,0.00,WUHU216HW,2013-07-19 15:26:00,
2013-07-19 08:31:00,71.1,57.4,30.28,North,0,0.0,0.0,62,0.00,,,0.00,WUHU216HW,2013-07-19 15:31:00,
2013-07-19 08:36:00,71.6,56.5,30.28,North,0,0.0,0.0,59,0.00,,,0.00,WUHU216HW,2013-07-19 15:36:00,
2013-07-19 08:41:00,72.2,56.5,30.27,North,0,0.0,0.0,58,0.00,,,0.00,WUHU216HW,2013-07-19 15:41:00,
2013-07-19 08:46:00,73.1,56.9,30.27,North,0,0.0,0.0,57,0.00,,,0.00,WUHU216HW,2013-07-19 15:46:00,
2013-07-19 08:51:00,73.8,57.1,30.27,North,0,0.0,0.0,56,0.00,,,0.00,WUHU216HW,2013-07-19 15:51:00,
2013-07-19 08:56:00,74.2,55.9,30.27,North,0,0.0,0.0,53,0.00,,,0.00,WUHU216HW,2013-07-19 15:56:00,
2013-07-19 09:01:00,74.7,55.9,30.27,North,0,0.0,0.0,52,0.00,,,0.00,WUHU216HW,2013-07-19 16:01:00,
2013-07-19 09:06:00,75.1,55.8,30.27,North,0,0.0,0.0,51,0.00,,,0.00,WUHU216HW,2013-07-19 16:06:00,
2013-07-19 09:11:00,75.6,55.8,30.27,North,0,0.0,0.0,50,0.00,,,0.00,WUHU216HW,2013-07-19 16:11:00,
2013-07-19 09:16:00,75.8,56.4,30.27,North,0,0.0,0.0,51,0.00,,,0.00,WUHU216HW,2013-07-19 16:16:00,
2013-07-19 09:21:00,76.5,57.1,30.27,North,0,0.0,0.0,51,0.00,,,0.00,WUHU216HW,2013-07-19 16:21:00,
2013-07-19 09:26:00,77.4,56.8,30.27,North,0,0.0,0.0,49,0.00,,,0.00,WUHU216HW,2013-07-19 16:26:00,
2013-07-19 09:31:00,78.8,56.3,30.27,North,0,0.0,0.0,46,0.00,,,0.00,WUHU216HW,2013-07-19 16:31:00,
2013-07-19 09:36:00,79.7,54.6,30.27,North,0,0.0,0.0,42,0.00,,,0.00,WUHU216HW,2013-07-19 16:36:00,
2013-07-19 09:41:00,79.9,56.0,30.27,North,0,0.0,0.0,44,0.00,,,0.00,WUHU216HW,2013-07-19 16:41:00,
2013-07-19 09:46:00,80.6,55.5,30.27,North,0,0.0,0.0,42,0.00,,,0.00,WUHU216HW,2013-07-19 16:46:00,
2013-07-19 09:51:00,81.4,55.4,30.27,North,0,0.0,0.0,41,0.00,,,0.00,WUHU216HW,2013-07-19 16:51:00,
2013-07-19 09:56:00,81.9,56.5,30.27,North,0,0.0,0.0,42,0.00,,,0.00,WUHU216HW,2013-07-19 16:56:00,
2013-07-19 10:01:00,82.1,56.1,30.26,North,0,0.0,0.0,41,0.00,,,0.00,WUHU216HW,2013-07-19 17:01:00,
2013-07-19 10:06:00,83.0,56.9,30.26,North,0,0.0,0.0,41,0.00,,,0.00,WUHU216HW,2013-07-19 17:06:00,
2013-07-19 10:11:00,83.2,54.9,30.26,North,0,0.0,0.0,38,0.00,,,0.00,WUHU216HW,2013-07-19 17:11:00,
2013-07-19 10:16:00,83.2,55.6,30.26,North,0,0.0,0.0,39,0.00,,,0.00,WUHU216HW,2013-07-19 17:16:00,
2013-07-19 10:21:00,82.8,54.5,30.26,North,0,0.0,0.0,38,0.00,,,0.00,WUHU216HW,2013-07-19 17:21:00,
2013-07-19 10:26:00,83.0,55.5,30.26,North,0,0.0,0.0,39,0.00,,,0.00,WUHU216HW,2013-07-19 17:26:00,
2013-07-19 10:31:00,83.2,56.4,30.26,North,0,0.0,0.0,40,0.00,,,0.00,WUHU216HW,2013-07-19 17:31:00,
2013-07-19 10:36:00,83.5,54.4,30.26,North,0,0.0,0.0,37,0.00,,,0.00,WUHU216HW,2013-07-19 17:36:00,
2013-07-19 10:41:00,83.5,55.2,30.26,North,0,0.0,0.0,38,0.00,,,0.00,WUHU216HW,2013-07-19 17:41:00,
2013-07-19 10:46:00,83.9,54.7,30.26,North,0,0.0,0.0,37,0.00,,,0.00,WUHU216HW,2013-07-19 17:46:00,
2013-07-19 10:51:00,83.9,56.4,30.26,North,0,0.0,0.0,39,0.00,,,0.00,WUHU216HW,2013-07-19 17:51:00,
2013-07-19 10:56:00,84.4,56.0,30.26,North,0,0.0,0.0,38,0.00,,,0.00,WUHU216HW,2013-07-19 17:56:00,
2013-07-19 11:01:00,84.4,55.2,30.26,North,0,0.0,0.0,37,0.00,,,0.00,WUHU216HW,2013-07-19 18:01:00,
2013-07-19 11:06:00,84.4,56.0,30.26,North,0,0.0,0.0,38,0.00,,,0.00,WUHU216HW,2013-07-19 18:06:00,
2013-07-19 11:11:00,84.4,55.2,30.26,North,0,0.0,0.0,37,0.00,,,0.00,WUHU216HW,2013-07-19 18:11:00,
2013-07-19 11:16:00,84.6,54.5,30.26,North,0,0.0,0.0,36,0.00,,,0.00,WUHU216HW,2013-07-19 18:16:00,
2013-07-19 11:21:00,84.8,53.9,30.26,North,0,0.0,0.0,35,0.00,,,0.00,WUHU216HW,2013-07-19 18:21:00,
2013-07-19 11:26:00,85.1,55.9,30.25,North,0,0.0,0.0,37,0.00,,,0.00,WUHU216HW,2013-07-19 18:26:00,
2013-07-19 11:31:00,85.7,54.0,30.25,North,0,0.0,0.0,34,0.00,,,0.00,WUHU216HW,2013-07-19 18:31:00,
2013-07-19 11:36:00,85.3,53.6,30.25,North,0,0.0,0.0,34,0.00,,,0.00,WUHU216HW,2013-07-19 18:36:00,
2013-07-19 11:41:00,85.0,53.3,30.25,North,0,0.0,0.0,34,0.00,,,0.00,WUHU216HW,2013-07-19 18:41:00,
2013-07-19 11:46:00,84.8,53.9,30.25,North,0,0.0,0.0,35,0.00,,,0.00,WUHU216HW,2013-07-19 18:46:00,
2013-07-19 11:51:00,85.0,55.7,30.25,North,0,0.0,0.0,37,0.00,,,0.00,WUHU216HW,2013-07-19 18:51:00,
2013-07-19 11:56:00,85.3,54.5,30.25,North,0,0.0,0.0,35,0.00,,,0.00,WUHU216HW,2013-07-19 18:56:00,
2013-07-19 12:01:00,85.7,54.7,30.25,North,0,0.0,0.0,35,0.00,,,0.00,WUHU216HW,2013-07-19 19:01:00,
2013-07-19 12:06:00,85.9,54.1,30.25,North,0,0.0,0.0,34,0.00,,,0.00,WUHU216HW,2013-07-19 19:06:00,
2013-07-19 12:11:00,86.4,54.6,30.25,North,0,0.0,0.0,34,0.00,,,0.00,WUHU216HW,2013-07-19 19:11:00,
2013-07-19 12:16:00,86.4,53.0,30.24,North,0,0.0,0.0,32,0.00,,,0.00,WUHU216HW,2013-07-19 19:16:00,
2013-07-19 12:21:00,86.6,53.2,30.25,North,0,0.0,0.0,32,0.00,,,0.00,WUHU216HW,2013-07-19 19:21:00,
2013-07-19 12:26:00,87.1,53.6,30.24,North,0,0.0,0.0,32,0.00,,,0.00,WUHU216HW,2013-07-19 19:26:00,
2013-07-19 12:31:00,87.1,54.4,30.25,North,0,0.0,0.0,33,0.00,,,0.00,WUHU216HW,2013-07-19 19:31:00,
2013-07-19 12:36:00,87.1,54.4,30.24,North,0,0.0,0.0,33,0.00,,,0.00,WUHU216HW,2013-07-19 19:36:00,
2013-07-19 12:41:00,87.1,54.4,30.24,North,0,0.0,0.0,33,0.00,,,0.00,WUHU216HW,2013-07-19 19:41:00,
2013-07-19 12:46:00,87.3,53.7,30.24,North,0,0.0,0.0,32,0.00,,,0.00,WUHU216HW,2013-07-19 19:46:00,
2013-07-19 12:51:00,87.1,52.8,30.24,North,0,0.0,0.0,31,0.00,,,0.00,WUHU216HW,2013-07-19 19:51:00,
2013-07-19 12:56:00,86.8,53.3,30.24,North,0,0.0,0.0,32,0.00,,,0.00,WUHU216HW,2013-07-19 19:56:00,
2013-07-19 13:01:00,86.8,51.7,30.23,North,0,0.0,0.0,30,0.00,,,0.00,WUHU216HW,2013-07-19 20:01:00,
2013-07-19 13:06:00,86.8,53.3,30.23,North,0,0.0,0.0,32,0.00,,,0.00,WUHU216HW,2013-07-19 20:06:00,
2013-07-19 13:11:00,86.8,53.3,30.23,North,0,0.0,0.0,32,0.00,,,0.00,WUHU216HW,2013-07-19 20:11:00,
2013-07-19 13:16:00,87.1,52.8,30.23,North,0,0.0,0.0,31,0.00,,,0.00,WUHU216HW,2013-07-19 20:16:00,
2013-07-19 13:21:00,86.8,51.7,30.23,North,0,0.0,0.0,30,0.00,,,0.00,WUHU216HW,2013-07-19 20:21:00,
2013-07-19 13:26:00,86.8,52.5,30.22,North,0,0.0,0.0,31,0.00,,,0.00,WUHU216HW,2013-07-19 20:26:00,
2013-07-19 13:31:00,86.9,52.7,30.23,North,0,0.0,0.0,31,0.00,,,0.00,WUHU216HW,2013-07-19 20:31:00,
2013-07-19 13:36:00,86.8,53.3,30.22,North,0,0.0,0.0,32,0.00,,,0.00,WUHU216HW,2013-07-19 20:36:00,
2013-07-19 13:41:00,87.1,52.8,30.22,North,0,0.0,0.0,31,0.00,,,0.00,WUHU216HW,2013-07-19 20:41:00,
2013-07-19 13:46:00,87.5,53.9,30.22,North,0,0.0,0.0,32,0.00,,,0.00,WUHU216HW,2013-07-19 20:46:00,
2013-07-19 13:51:00,87.8,54.2,30.22,North,0,0.0,0.0,32,0.00,,,0.00,WUHU216HW,2013-07-19 20:51:00,
2013-07-19 13:56:00,88.2,54.6,30.22,North,0,0.0,0.0,32,0.00,,,0.00,WUHU216HW,2013-07-19 20:56:00,
2013-07-19 14:01:00,88.6,53.2,30.21,North,0,0.0,0.0,30,0.00,,,0.00,WUHU216HW,2013-07-19 21:01:00,
2013-07-19 14:06:00,88.0,53.6,30.21,North,0,0.0,0.0,31,0.00,,,0.00,WUHU216HW,2013-07-19 21:06:00,
2013-07-19 14:11:00,87.5,53.1,30.21,North,0,0.0,0.0,31,0.00,,,0.00,WUHU216HW,2013-07-19 21:11:00,
2013-07-19 14:16:00,87.1,53.6,30.21,North,0,0.0,0.0,32,0.00,,,0.00,WUHU216HW,2013-07-19 21:16:00,
2013-07-19 14:21:00,87.1,53.6,30.21,North,0,0.0,0.0,32,0.00,,,0.00,WUHU216HW,2013-07-19 21:21:00,
2013-07-19 14:26:00,86.6,53.2,30.21,North,0,0.0,0.0,32,0.00,,,0.00,WUHU216HW,2013-07-19 21:26:00,
2013-07-19 14:31:00,86.2,53.6,30.21,North,0,0.0,0.0,33,0.00,,,0.00,WUHU216HW,2013-07-19 21:31:00,
2013-07-19 14:36:00,85.7,54.7,30.21,North,0,0.0,0.0,35,0.00,,,0.00,WUHU216HW,2013-07-19 21:36:00,
2013-07-19 14:41:00,84.8,55.5,30.21,North,0,0.0,0.0,37,0.00,,,0.00,WUHU216HW,2013-07-19 21:41:00,
2013-07-19 14:46:00,83.9,54.7,30.21,North,0,0.0,0.0,37,0.00,,,0.00,WUHU216HW,2013-07-19 21:46:00,
2013-07-19 14:51:00,83.0,54.7,30.21,North,0,0.0,0.0,38,0.00,,,0.00,WUHU216HW,2013-07-19 21:51:00,
2013-07-19 14:56:00,81.9,54.6,30.21,North,0,0.0,0.0,39,0.00,,,0.00,WUHU216HW,2013-07-19 21:56:00,
2013-07-19 15:01:00,80.8,55.0,30.21,North,0,0.0,0.0,41,0.00,,,0.00,WUHU216HW,2013-07-19 22:01:00,
2013-07-19 15:06:00,80.3,55.1,30.20,North,0,0.0,0.0,42,0.00,,,0.00,WUHU216HW,2013-07-19 22:06:00,
2013-07-19 15:11:00,80.3,55.1,30.21,North,0,0.0,0.0,42,0.00,,,0.00,WUHU216HW,2013-07-19 22:11:00,
2013-07-19 15:16:00,80.6,55.5,30.20,North,0,0.0,0.0,42,0.00,,,0.00,WUHU216HW,2013-07-19 22:16:00,
2013-07-19 15:21:00,81.4,56.1,30.20,North,0,0.0,0.0,42,0.00,,,0.00,WUHU216HW,2013-07-19 22:21:00,
2013-07-19 15:26:00,81.7,55.8,30.20,North,0,0.0,0.0,41,0.00,,,0.00,WUHU216HW,2013-07-19 22:26:00,
2013-07-19 15:31:00,81.7,55.2,30.20,North,0,0.0,0.0,40,0.00,,,0.00,WUHU216HW,2013-07-19 22:31:00,
2013-07-19 15:36:00,82.1,55.4,30.20,North,0,0.0,0.0,40,0.00,,,0.00,WUHU216HW,2013-07-19 22:36:00,
2013-07-19 15:41:00,82.4,55.0,30.20,North,0,0.0,0.0,39,0.00,,,0.00,WUHU216HW,2013-07-19 22:41:00,
2013-07-19 15:46:00,82.6,55.2,30.19,North,0,0.0,0.0,39,0.00,,,0.00,WUHU216HW,2013-07-19 22:46:00,
2013-07-19 15:51:00,82.8,56.2,30.19,North,0,0.0,0.0,40,0.00,,,0.00,WUHU216HW,2013-07-19 22:51:00,
2013-07-19 15:56:00,82.8,55.4,30.19,North,0,0.0,0.0,39,0.00,,,0.00,WUHU216HW,2013-07-19 22:56:00,
2013-07-19 16:01:00,82.8,56.2,30.20,North,0,0.0,0.0,40,0.00,,,0.00,WUHU216HW,2013-07-19 23:01:00,
2013-07-19 16:06:00,82.8,55.4,30.20,North,0,0.0,0.0,39,0.00,,,0.00,WUHU216HW,2013-07-19 23:06:00,
2013-07-19 16:11:00,82.8,55.4,30.19,North,0,0.0,0.0,39,0.00,,,0.00,WUHU216HW,2013-07-19 23:11:00,
2013-07-19 16:16:00,83.0,55.5,30.19,North,0,0.0,0.0,39,0.00,,,0.00,WUHU216HW,2013-07-19 23:16:00,
2013-07-19 16:21:00,83.2,55.6,30.20,North,0,0.0,0.0,39,0.00,,,0.00,WUHU216HW,2013-07-19 23:21:00,
2013-07-19 16:26:00,83.2,54.9,30.19,North,0,0.0,0.0,38,0.00,,,0.00,WUHU216HW,2013-07-19 23:26:00,
2013-07-19 16:31:00,83.2,55.6,30.19,North,0,0.0,0.0,39,0.00,,,0.00,WUHU216HW,2013-07-19 23:31:00,
2013-07-19 16:36:00,83.3,55.0,30.19,North,0,0.0,0.0,38,0.00,,,0.00,WUHU216HW,2013-07-19 23:36:00,
2013-07-19 16:41:00,83.5,55.2,30.19,North,0,0.0,0.0,38,0.00,,,0.00,WUHU216HW,2013-07-19 23:41:00,
2013-07-19 16:46:00,83.5,54.4,30.19,North,0,0.0,0.0,37,0.00,,,0.00,WUHU216HW,2013-07-19 23:46:00,
2013-07-19 16:51:00,83.5,55.2,30.19,North,0,0.0,0.0,38,0.00,,,0.00,WUHU216HW,2013-07-19 23:51:00,
2013-07-19 16:56:00,83.7,55.4,30.18,North,0,0.0,0.0,38,0.00,,,0.00,WUHU216HW,2013-07-19 23:56:00,
2013-07-19 17:01:00,83.5,54.4,30.18,North,0,0.0,0.0,37,0.00,,,0.00,WUHU216HW,2013-07-20 00:01:00,
2013-07-19 17:06:00,83.0,57.5,30.19,North,0,0.0,0.0,42,0.02,,,0.02,WUHU216HW,2013-07-20 00:06:00,
2013-07-19 17:11:00,73.6,52.7,30.21,North,0,0.0,0.0,48,0.38,,,0.38,WUHU216HW,2013-07-20 00:11:00,
2013-07-19 17:16:00,66.6,54.8,30.20,North,0,0.0,0.0,66,0.61,,,0.61,WUHU216HW,2013-07-20 00:16:00,
2013-07-19 17:21:00,65.5,55.9,30.18,North,0,0.0,0.0,71,0.61,,,0.61,WUHU216HW,2013-07-20 00:21:00,
2013-07-19 17:26:00,65.2,57.1,30.19,North,0,0.0,0.0,75,0.61,,,0.61,WUHU216HW,2013-07-20 00:26:00,
2013-07-19 17:31:00,65.2,57.4,30.20,North,0,0.0,0.0,76,0.61,,,0.61,WUHU216HW,2013-07-20 00:31:00,
2013-07-19 17:36:00,65.3,58.3,30.20,North,0,0.0,0.0,78,0.61,,,0.61,WUHU216HW,2013-07-20 00:36:00,
2013-07-19 17:41:00,65.3,58.0,30.20,North,0,0.0,0.0,77,0.61,,,0.61,WUHU216HW,2013-07-20 00:41:00,
2013-07-19 17:46:00,65.2,57.8,30.21,North,0,0.0,0.0,77,0.61,,,0.61,WUHU216HW,2013-07-20 00:46:00,
2013-07-19 17:51:00,65.2,58.9,30.21,North,0,0.0,0.0,80,0.61,,,0.61,WUHU216HW,2013-07-20 00:51:00,
2013-07-19 17:56:00,65.0,58.0,30.21,North,0,0.0,0.0,78,0.61,,,0.61,WUHU216HW,2013-07-20 00:56:00,
2013-07-19 18:01:00,64.6,58.0,30.21,North,0,0.0,0.0,79,0.61,,,0.61,WUHU216HW,2013-07-20 01:01:00,
2013-07-19 18:06:00,64.6,58.3,30.21,North,0,0.0,0.0,80,0.59,,,0.61,WUHU216HW,2013-07-20 01:06:00,
2013-07-19 18:11:00,64.8,58.9,30.22,North,0,0.0,0.0,81,0.23,,,0.61,WUHU216HW,2013-07-20 01:11:00,
2013-07-19 18:16:00,64.8,58.9,30.22,North,0,0.0,0.0,81,0.00,,,0.61,WUHU216HW,2013-07-20 01:16:00,
2013-07-19 18:21:00,65.0,59.3,30.22,North,0,0.0,0.0,82,0.00,,,0.61,WUHU216HW,2013-07-20 01:21:00,
2013-07-19 18:26:00,65.0,59.1,30.22,North,0,0.0,0.0,81,0.00,,,0.61,WUHU216HW,2013-07-20 01:26:00,
2013-07-19 18:31:00,64.8,59.2,30.22,North,0,0.0,0.0,82,0.00,,,0.61,WUHU216HW,2013-07-20 01:31:00,
2013-07-19 18:36:00,65.0,59.3,30.22,North,0,0.0,0.0,82,0.00,,,0.61,WUHU216HW,2013-07-20 01:36:00,
2013-07-19 18:41:00,65.2,59.5,30.22,North,0,0.0,0.0,82,0.00,,,0.61,WUHU216HW,2013-07-20 01:41:00,
2013-07-19 18:46:00,65.0,59.3,30.22,North,0,0.0,0.0,82,0.00,,,0.61,WUHU216HW,2013-07-20 01:46:00,
2013-07-19 18:51:00,65.0,59.3,30.21,North,0,0.0,0.0,82,0.00,,,0.61,WUHU216HW,2013-07-20 01:51:00,
2013-07-19 18:56:00,65.0,59.3,30.21,North,0,0.0,0.0,82,0.00,,,0.61,WUHU216HW,2013-07-20 01:56:00,
2013-07-19 19:01:00,65.0,59.3,30.22,North,0,0.0,0.0,82,0.00,,,0.61,WUHU216HW,2013-07-20 02:01:00,
2013-07-19 19:06:00,64.8,59.2,30.22,North,0,0.0,0.0,82,0.00,,,0.61,WUHU216HW,2013-07-20 02:06:00,
2013-07-19 19:11:00,64.4,58.5,30.22,North,0,0.0,0.0,81,0.00,,,0.61,WUHU216HW,2013-07-20 02:11:00,
2013-07-19 19:16:00,64.3,58.7,30.22,North,0,0.0,0.0,82,0.00,,,0.61,WUHU216HW,2013-07-20 02:16:00,
2013-07-19 19:21:00,64.1,58.2,30.22,North,0,0.0,0.0,81,0.00,,,0.61,WUHU216HW,2013-07-20 02:21:00,
2013-07-19 19:26:00,63.9,58.0,30.23,North,0,0.0,0.0,81,0.00,,,0.61,WUHU216HW,2013-07-20 02:26:00,
2013-07-19 19:31:00,63.9,58.3,30.22,North,0,0.0,0.0,82,0.00,,,0.61,WUHU216HW,2013-07-20 02:31:00,
2013-07-19 19:36:00,63.9,58.3,30.22,North,0,0.0,0.0,82,0.00,,,0.61,WUHU216HW,2013-07-20 02:36:00,
2013-07-19 19:41:00,63.7,57.8,30.21,North,0,0.0,0.0,81,0.00,,,0.61,WUHU216HW,2013-07-20 02:41:00,
2013-07-19 19:46:00,63.7,57.8,30.21,North,0,0.0,0.0,81,0.00,,,0.61,WUHU216HW,2013-07-20 02:46:00,
2013-07-19 19:51:00,63.5,57.6,30.22,North,0,0.0,0.0,81,0.00,,,0.61,WUHU216HW,2013-07-20 02:51:00,
2013-07-19 19:56:00,63.4,57.4,30.22,North,0,0.0,0.0,81,0.00,,,0.61,WUHU216HW,2013-07-20 02:56:00,
2013-07-19 20:01:00,63.2,57.3,30.22,North,0,0.0,0.0,81,0.00,,,0.61,WUHU216HW,2013-07-20 03:01:00,
2013-07-19 20:06:00,63.2,57.6,30.22,North,0,0.0,0.0,82,0.00,,,0.61,WUHU216HW,2013-07-20 03:06:00,
2013-07-19 20:11:00,63.2,57.6,30.22,North,0,0.0,0.0,82,0.00,,,0.61,WUHU216HW,2013-07-20 03:11:00,
2013-07-19 20:16:00,63.4,57.4,30.22,North,0,0.0,0.0,81,0.00,,,0.61,WUHU216HW,2013-07-20 03:16:00,
2013-07-19 20:21:00,63.4,57.4,30.22,North,0,0.0,0.0,81,0.00,,,0.61,WUHU216HW,2013-07-20 03:21:00,
2013-07-19 20:26:00,63.4,57.1,30.22,North,0,0.0,0.0,80,0.00,,,0.61,WUHU216HW,2013-07-20 03:26:00,
2013-07-19 20:31:00,63.4,57.1,30.23,North,0,0.0,0.0,80,0.00,,,0.61,WUHU216HW,2013-07-20 03:31:00,
2013-07-19 20:36:00,63.4,56.7,30.23,North,0,0.0,0.0,79,0.00,,,0.61,WUHU216HW,2013-07-20 03:36:00,
2013-07-19 20:41:00,63.4,56.7,30.23,North,0,0.0,0.0,79,0.00,,,0.61,WUHU216HW,2013-07-20 03:41:00,
2013-07-19 20:46:00,63.4,56.7,30.23,North,0,0.0,0.0,79,0.00,,,0.61,WUHU216HW,2013-07-20 03:46:00,
2013-07-19 20:51:00,63.4,57.1,30.24,North,0,0.0,0.0,80,0.00,,,0.61,WUHU216HW,2013-07-20 03:51:00,
2013-07-19 20:56:00,63.4,56.7,30.24,North,0,0.0,0.0,79,0.00,,,0.61,WUHU216HW,2013-07-20 03:56:00,
2013-07-19 21:01:00,63.4,57.1,30.24,North,0,0.0,0.0,80,0.00,,,0.61,WUHU216HW,2013-07-20 04:01:00,
2013-07-19 21:02:00,63.4,57.1,30.24,North,0,0.0,0.0,80,0.00,,,0.61,WUHU216HW,2013-07-20 04:02:00,
2013-07-19 21:07:00,63.4,57.1,30.24,North,0,0.0,0.0,80,0.00,,,0.61,WUHU216HW,2013-07-20 04:07:00,
2013-07-19 21:12:00,63.4,57.4,30.24,North,0,0.0,0.0,81,0.00,,,0.61,WUHU216HW,2013-07-20 04:12:00,
2013-07-19 21:17:00,63.4,57.4,30.24,North,0,0.0,0.0,81,0.00,,,0.61,WUHU216HW,2013-07-20 04:17:00,
2013-07-19 21:22:00,63.4,57.4,30.23,North,0,0.0,0.0,81,0.00,,,0.61,WUHU216HW,2013-07-20 04:22:00,
2013-07-19 21:27:00,63.4,57.4,30.24,North,0,0.0,0.0,81,0.00,,,0.61,WUHU216HW,2013-07-20 04:27:00,
2013-07-19 21:32:00,63.4,57.4,30.24,North,0,0.0,0.0,81,0.00,,,0.61,WUHU216HW,2013-07-20 04:32:00,
2013-07-19 21:37:00,63.4,57.1,30.24,North,0,0.0,0.0,80,0.00,,,0.61,WUHU216HW,2013-07-20 04:37:00,
2013-07-19 21:42:00,63.2,56.9,30.24,North,0,0.0,0.0,80,0.00,,,0.61,WUHU216HW,2013-07-20 04:42:00,
2013-07-19 21:47:00,63.0,57.1,30.24,North,0,0.0,0.0,81,0.00,,,0.61,WUHU216HW,2013-07-20 04:47:00,
2013-07-19 21:52:00,63.0,56.7,30.24,North,0,0.0,0.0,80,0.00,,,0.61,WUHU216HW,2013-07-20 04:52:00,
2013-07-19 21:57:00,63.0,56.3,30.24,North,0,0.0,0.0,79,0.00,,,0.61,WUHU216HW,2013-07-20 04:57:00,
2013-07-19 22:02:00,63.0,56.7,30.24,North,0,0.0,0.0,80,0.00,,,0.61,WUHU216HW,2013-07-20 05:02:00,
2013-07-19 22:07:00,63.0,56.7,30.24,North,0,0.0,0.0,80,0.00,,,0.61,WUHU216HW,2013-07-20 05:07:00,
2013-07-19 22:12:00,63.0,57.1,30.24,North,0,0.0,0.0,81,0.00,,,0.61,WUHU216HW,2013-07-20 05:12:00,
2013-07-19 22:17:00,63.0,57.1,30.24,North,0,0.0,0.0,81,0.00,,,0.61,WUHU216HW,2013-07-20 05:17:00,
2013-07-19 22:22:00,63.0,57.1,30.23,North,0,0.0,0.0,81,0.00,,,0.61,WUHU216HW,2013-07-20 05:22:00,
2013-07-19 22:27:00,62.8,56.9,30.23,North,0,0.0,0.0,81,0.00,,,0.61,WUHU216HW,2013-07-20 05:27:00,
2013-07-19 22:32:00,62.8,56.9,30.23,North,0,0.0,0.0,81,0.00,,,0.61,WUHU216HW,2013-07-20 05:32:00,
2013-07-19 22:37:00,62.8,56.9,30.23,North,0,0.0,0.0,81,0.00,,,0.61,WUHU216HW,2013-07-20 05:37:00,
2013-07-19 22:42:00,63.0,57.1,30.23,North,0,0.0,0.0,81,0.00,,,0.61,WUHU216HW,2013-07-20 05:42:00,
2013-07-19 22:47:00,63.0,57.1,30.23,North,0,0.0,0.0,81,0.00,,,0.61,WUHU216HW,2013-07-20 05:47:00,
2013-07-19 22:52:00,63.0,57.1,30.23,North,0,0.0,0.0,81,0.00,,,0.61,WUHU216HW,2013-07-20 05:52:00,
2013-07-19 22:57:00,63.0,56.7,30.23,North,0,0.0,0.0,80,0.00,,,0.61,WUHU216HW,2013-07-20 05:57:00,
2013-07-19 23:02:00,63.0,57.1,30.23,North,0,0.0,0.0,81,0.00,,,0.61,WUHU216HW,2013-07-20 06:02:00,
2013-07-19 23:07:00,63.0,57.1,30.23,North,0,0.0,0.0,81,0.00,,,0.61,WUHU216HW,2013-07-20 06:07:00,
2013-07-19 23:12:00,63.0,57.1,30.23,North,0,0.0,0.0,81,0.00,,,0.61,WUHU216HW,2013-07-20 06:12:00,
2013-07-19 23:17:00,63.0,57.1,30.23,North,0,0.0,0.0,81,0.00,,,0.61,WUHU216HW,2013-07-20 06:17:00,
2013-07-19 23:21:00,63.0,57.4,30.23,North,0,0.0,0.0,82,0.00,,,0.61,WUHU216HW,2013-07-20 06:21:00,
2013-07-19 23:27:00,63.0,57.4,30.23,North,0,0.0,0.0,82,0.00,,,0.61,WUHU216HW,2013-07-20 06:27:00,
2013-07-19 23:32:00,62.8,57.3,30.23,North,0,0.0,0.0,82,0.00,,,0.61,WUHU216HW,2013-07-20 06:32:00,
2013-07-19 23:37:00,62.8,57.3,30.23,North,0,0.0,0.0,82,0.00,,,0.61,WUHU216HW,2013-07-20 06:37:00,
2013-07-19 23:42:00,62.6,57.1,30.24,North,0,0.0,0.0,82,0.00,,,0.61,WUHU216HW,2013-07-20 06:42:00,
2013-07-19 23:47:00,62.8,57.5,30.24,North,0,0.0,0.0,83,0.00,,,0.61,WUHU216HW,2013-07-20 06:47:00,
2013-07-19 23:51:00,62.6,57.3,30.24,North,0,0.0,0.0,83,0.00,,,0.61,WUHU216HW,2013-07-20 06:51:00,
2013-07-19 23:57:00,62.8,57.5,30.24,North,0,0.0,0.0,83,0.00,,,0.61,WUHU216HW,2013-07-20 06:57:00,